Meteo orario Al Khafji

Oggi, 26 Ottobre, Lunedi

Tempo Temperatura Precipitazioni Vento Pressione Umidità
00:00 +23°C° 0 mm 4 m/s 759 mm Hg 49%
01:00 +24°C° 0 mm 3 m/s 759 mm Hg 48%
02:00 +24°C° 0 mm 3 m/s 759 mm Hg 47%
03:00 +22°C° 0 mm 3 m/s 759 mm Hg 46%
04:00 +22°C° 0 mm 3 m/s 759 mm Hg 47%
05:00 +21°C° 0 mm 3 m/s 760 mm Hg 47%
06:00 +21°C° 0 mm 3 m/s 760 mm Hg 47%
07:00 +25°C° 0 mm 3 m/s 760 mm Hg 41%
08:00 +28°C° 0 mm 2 m/s 761 mm Hg 34%
09:00 +31°C° 0 mm 2 m/s 761 mm Hg 28%
10:00 +34°C° 0 mm 2 m/s 761 mm Hg 23%
11:00 +34°C° 0 mm 1 m/s 760 mm Hg 19%
12:00 +36°C° 0 mm 1 m/s 760 mm Hg 14%
13:00 +37°C° 0 mm 2 m/s 759 mm Hg 16%
14:00 +36°C° 0 mm 3 m/s 759 mm Hg 18%
15:00 +36°C° 0 mm 5 m/s 758 mm Hg 20%
16:00 +33°C° 0 mm 4 m/s 759 mm Hg 31%
17:00 +30°C° 0 mm 4 m/s 759 mm Hg 42%
18:00 +27°C° 0 mm 4 m/s 759 mm Hg 52%
19:00 +26°C° 0 mm 3 m/s 759 mm Hg 54%
20:00 +26°C° 0 mm 3 m/s 759 mm Hg 55%
21:00 +25°C° 0 mm 2 m/s 759 mm Hg 56%
22:00 +25°C° 0 mm 3 m/s 759 mm Hg 53%
23:00 +25°C° 0 mm 3 m/s 759 mm Hg 50%

Domani, 27 Ottobre, Martedi

Tempo Temperatura Precipitazioni Vento Pressione Umidità
00:00 +25°C° 0 mm 3 m/s 759 mm Hg 47%
01:00 +25°C° 0 mm 3 m/s 759 mm Hg 45%
02:00 +25°C° 0 mm 3 m/s 759 mm Hg 42%
03:00 +25°C° 0 mm 4 m/s 759 mm Hg 39%
04:00 +25°C° 0 mm 4 m/s 759 mm Hg 39%
05:00 +23°C° 0 mm 4 m/s 759 mm Hg 38%
06:00 +23°C° 0 mm 4 m/s 759 mm Hg 37%
07:00 +27°C° 0 mm 4 m/s 759 mm Hg 31%
08:00 +29°C° 0 mm 3 m/s 760 mm Hg 24%
09:00 +33°C° 0 mm 3 m/s 760 mm Hg 18%
10:00 +35°C° 0 mm 2 m/s 760 mm Hg 16%
11:00 +36°C° 0 mm 2 m/s 759 mm Hg 13%
12:00 +38°C° 0 mm 2 m/s 759 mm Hg 11%
13:00 +37°C° 0 mm 3 m/s 759 mm Hg 13%
14:00 +37°C° 0 mm 3 m/s 758 mm Hg 14%
15:00 +37°C° 0 mm 4 m/s 758 mm Hg 16%
16:00 +33°C° 0 mm 3 m/s 758 mm Hg 26%
17:00 +29°C° 0 mm 3 m/s 758 mm Hg 35%
18:00 +26°C° 0 mm 2 m/s 758 mm Hg 45%
19:00 +26°C° 0 mm 2 m/s 758 mm Hg 43%
20:00 +26°C° 0 mm 3 m/s 758 mm Hg 42%
21:00 +26°C° 0 mm 3 m/s 759 mm Hg 40%
22:00 +26°C° 0 mm 3 m/s 759 mm Hg 37%
23:00 +26°C° 0 mm 3 m/s 758 mm Hg 34%

Dopodomani, 28 Ottobre, Mercoledi

Tempo Temperatura Precipitazioni Vento Pressione Umidità
00:00 +26°C° 0 mm 4 m/s 758 mm Hg 31%
01:00 +26°C° 0 mm 4 m/s 758 mm Hg 31%
02:00 +25°C° 0 mm 4 m/s 758 mm Hg 31%
03:00 +25°C° 0 mm 4 m/s 758 mm Hg 30%
04:00 +25°C° 0 mm 4 m/s 758 mm Hg 26%
05:00 +23°C° 0 mm 4 m/s 759 mm Hg 22%
06:00 +23°C° 0 mm 4 m/s 759 mm Hg 18%
07:00 +26°C° 0 mm 4 m/s 759 mm Hg 16%
08:00 +29°C° 0 mm 3 m/s 760 mm Hg 13%
09:00 +33°C° 0 mm 3 m/s 760 mm Hg 11%
10:00 +34°C° 0 mm 3 m/s 760 mm Hg 11%
11:00 +36°C° 0 mm 4 m/s 759 mm Hg 10%
12:00 +37°C° 0 mm 4 m/s 759 mm Hg 10%
13:00 +37°C° 0 mm 4 m/s 759 mm Hg 11%
14:00 +36°C° 0 mm 4 m/s 758 mm Hg 13%
15:00 +36°C° 0 mm 4 m/s 758 mm Hg 14%
16:00 +33°C° 0 mm 3 m/s 758 mm Hg 23%
17:00 +29°C° 0 mm 3 m/s 758 mm Hg 31%
18:00 +25°C° 0 mm 2 m/s 759 mm Hg 40%
19:00 +25°C° 0 mm 2 m/s 759 mm Hg 40%
20:00 +24°C° 0 mm 2 m/s 759 mm Hg 40%
21:00 +23°C° 0 mm 1 m/s 759 mm Hg 40%
22:00 +24°C° 0 mm 2 m/s 759 mm Hg 35%
23:00 +24°C° 0 mm 3 m/s 759 mm Hg 30%

29 Ottobre, Giovedi

Tempo Temperatura Precipitazioni Vento Pressione Umidità
00:00 +24°C° 0 mm 3 m/s 759 mm Hg 26%
01:00 +24°C° 0 mm 3 m/s 759 mm Hg 24%
02:00 +24°C° 0 mm 3 m/s 759 mm Hg 22%
03:00 +25°C° 0 mm 3 m/s 759 mm Hg 21%
04:00 +24°C° 0 mm 3 m/s 759 mm Hg 21%
05:00 +22°C° 0 mm 3 m/s 760 mm Hg 21%
06:00 +22°C° 0 mm 3 m/s 760 mm Hg 21%
07:00 +26°C° 0 mm 3 m/s 760 mm Hg 17%
08:00 +28°C° 0 mm 2 m/s 761 mm Hg 13%
09:00 +31°C° 0 mm 2 m/s 761 mm Hg 9%
10:00 +34°C° 0 mm 2 m/s 761 mm Hg 9%
11:00 +35°C° 0 mm 2 m/s 760 mm Hg 8%
12:00 +37°C° 0 mm 2 m/s 760 mm Hg 7%
13:00 +36°C° 0 mm 2 m/s 760 mm Hg 8%
14:00 +36°C° 0 mm 3 m/s 760 mm Hg 10%
15:00 +36°C° 0 mm 3 m/s 759 mm Hg 12%
16:00 +33°C° 0 mm 3 m/s 759 mm Hg 21%
17:00 +29°C° 0 mm 3 m/s 760 mm Hg 29%
18:00 +26°C° 0 mm 3 m/s 760 mm Hg 38%
19:00 +25°C° 0 mm 3 m/s 760 mm Hg 40%
20:00 +24°C° 0 mm 2 m/s 760 mm Hg 42%
21:00 +23°C° 0 mm 2 m/s 761 mm Hg 44%
22:00 +23°C° 0 mm 2 m/s 760 mm Hg 40%
23:00 +22°C° 0 mm 3 m/s 760 mm Hg 37%

30 Ottobre, Venerdi

Tempo Temperatura Precipitazioni Vento Pressione Umidità
00:00 +24°C° 0 mm 3 m/s 760 mm Hg 34%
01:00 +22°C° 0 mm 3 m/s 760 mm Hg 33%
02:00 +22°C° 0 mm 3 m/s 760 mm Hg 31%
03:00 +22°C° 0 mm 3 m/s 760 mm Hg 30%
04:00 +21°C° 0 mm 2 m/s 760 mm Hg 31%
05:00 +20°C° 0 mm 2 m/s 761 mm Hg 33%
06:00 +19°C° 0 mm 2 m/s 761 mm Hg 35%
07:00 +23°C° 0 mm 2 m/s 761 mm Hg 29%
08:00 +27°C° 0 mm 2 m/s 761 mm Hg 23%
09:00 +30°C° 0 mm 2 m/s 762 mm Hg 17%
10:00 +32°C° 0 mm 2 m/s 761 mm Hg 15%
11:00 +33°C° 0 mm 1 m/s 761 mm Hg 12%
12:00 +35°C° 0 mm 1 m/s 760 mm Hg 9%
13:00 +36°C° 0 mm 2 m/s 760 mm Hg 10%
14:00 +36°C° 0 mm 2 m/s 760 mm Hg 11%
15:00 +36°C° 0 mm 3 m/s 759 mm Hg 11%
16:00 +33°C° 0 mm 3 m/s 759 mm Hg 21%
17:00 +28°C° 0 mm 2 m/s 759 mm Hg 30%
18:00 +25°C° 0 mm 2 m/s 759 mm Hg 40%
19:00 +25°C° 0 mm 2 m/s 759 mm Hg 39%
20:00 +24°C° 0 mm 2 m/s 759 mm Hg 38%
21:00 +24°C° 0 mm 2 m/s 760 mm Hg 37%
22:00 +24°C° 0 mm 2 m/s 759 mm Hg 34%
23:00 +24°C° 0 mm 3 m/s 759 mm Hg 32%

31 Ottobre, Sabato

Tempo Temperatura Precipitazioni Vento Pressione Umidità
00:00 +25°C° 0 mm 3 m/s 759 mm Hg 29%
01:00 +24°C° 0 mm 3 m/s 759 mm Hg 27%
02:00 +24°C° 0 mm 3 m/s 759 mm Hg 26%
03:00 +22°C° 0 mm 3 m/s 759 mm Hg 24%
04:00 +22°C° 0 mm 3 m/s 759 mm Hg 25%
05:00 +22°C° 0 mm 3 m/s 759 mm Hg 25%
06:00 +22°C° 0 mm 3 m/s 759 mm Hg 26%
07:00 +25°C° 0 mm 2 m/s 760 mm Hg 23%
08:00 +28°C° 0 mm 2 m/s 760 mm Hg 20%
09:00 +31°C° 0 mm 2 m/s 760 mm Hg 18%
Mostrare altro

Abbiamo bisogno del tuo consenso

Meteoprog e i nostri fornitori di servizi possono memorizzare e accedere a dati personali come cookie, identificatori di dispositivi o altre tecnologie simili sul tuo dispositivo e possono elaborare tali dati per personalizzare i contenuti e gli annunci, nonché fornire funzionalità dei social media e analizzarne il traffico.

  • Archiviare e/o accedere alle informazioni sul tuo dispositivo

    Cookie, identificatori di dispositivi o altre informazioni possono essere memorizzati o resi accessibili sul tuo dispositivo per le finalità sopra indicate.

  • Annunci e contenuti personalizzati, misurazione di annunci e contenuti, approfondimenti sul pubblico e sviluppo di prodotti

    Gli annunci e i contenuti possono essere personalizzati in base a un profilo. È possibile aggiungere più dati per personalizzare meglio annunci e contenuti. È possibile misurare il rendimento degli annunci e dei contenuti. È possibile ricavare informazioni sul pubblico che ha visto gli annunci e i contenuti. Tali dati possono essere utilizzati per sviluppare o migliorare l'esperienza, i sistemi e il software dell'utente.

Cliccando su “Accetto”, acconsenti all'uso di cookie, identificatori di dispositivo, web beacon o altre tecnologie simili. Puoi modificare le impostazioni nel browser del tuo dispositivo.

Per determinati scopi, è possibile fare affidamento su interessi legali, piuttosto che sul consenso. Puoi approfondire questo argomento consultando la nostra Informativa sulla privacy e sui cookie.